Location: Unspecified
(0.0000°N, 0.0000°E)
Time: 03:21:23
(UTC+01:00)

SWIFT - Visible Passes

Search period start: 20 December 2014 00:00
Search period end: 30 December 2014 00:00
Orbit: 558 x 574 km, 20.6° (Epoch: 19 December)

Date Brightness Start Highest point End Pass type
(mag) Time Alt. Az. Time Alt. Az. Time Alt. Az.
20 Dec 4.0 05:35:12 20° N 05:36:19 23° NNE 05:39:44 10° ENE visible
20 Dec 4.5 20:56:35 10° WNW 20:58:31 19° NW 20:58:31 19° NW visible
21 Dec 3.5 05:33:31 28° N 05:34:34 31° NNE 05:38:25 10° E visible
21 Dec 4.8 20:55:29 10° WNW 20:56:49 14° NW 20:56:49 14° NW visible
22 Dec 3.0 05:31:48 38° NNW 05:32:46 45° NNE 05:36:55 10° E visible
22 Dec 5.0 20:54:47 10° NW 20:55:06 11° NW 20:55:06 11° NW visible
23 Dec 2.4 05:30:05 52° NW 05:30:56 68° NNE 05:35:14 10° ESE visible
24 Dec 2.3 05:28:20 60° W 05:29:05 81° SSW 05:33:25 10° ESE visible
25 Dec 2.7 05:26:33 48° WSW 05:27:13 54° SSW 05:31:28 10° SE visible
26 Dec 3.3 05:24:45 35° SW 05:25:21 37° SSW 05:29:23 10° SE visible
27 Dec 3.8 05:22:54 25° SW 05:23:29 26° SSW 05:27:09 10° SE visible
28 Dec 4.3 05:21:02 19° SSW 05:21:39 19° SSW 05:24:47 10° SSE visible
29 Dec 4.7 05:19:08 14° SSW 05:19:49 14° SSW 05:22:13 10° SSE visible
